Weather History for Novato, CA

Change the Weather History Date:

Monday, October 14, 2013

  Actual Average (KAPC) Record (KAPC)
Temperature  
Mean Temperature 58 °F 59 °F  
Max Temperature 77 °F 75 °F 91 °F (2010)
Min Temperature 39 °F 43 °F 37 °F (2013)
Degree Days  
Heating Degree Days 7    
Month to date heating degree days  
Since 1 July heating degree days  
Cooling Degree Days 0    
Month to date cooling degree days  
Year to date cooling degree days  
Growing Degree Days 8 (Base 50)    
Moisture  
Dew Point 39 °F    
Average Humidity 58    
Maximum Humidity 100    
Minimum Humidity 22    
Precipitation  
Precipitation 0.00 in - 1.22 in (1935)
Month to date precipitation  
Year to date precipitation  
Since 1 July precipitation  
Sea Level Pressure  
Sea Level Pressure 30.07 in    
Wind  
Wind Speed 2 mph (East)    
Max Wind Speed 7 mph    
Max Gust Speed -    
Visibility 10 miles    
Events Rain    
T = Trace of Precipitation, MM = Missing Value Source: NWS Daily Summary

Daily Weather History Graph

Daily Weather History Graph

Search for Another Location

Airport:

Trip Planner

Search our weather history database for the weather conditions in past years. The results will help you decide how hot, cold, wet, or windy it might be!

Date:

Astronomy

Oct. 14, 2013 Rise Set
Actual Time 7:18 AM PDT 6:33 PM PDT
Civil Twilight 6:51 AM PDT 6:59 PM PDT
Nautical Twilight 6:21 AM PDT 7:30 PM PDT
Astronomical Twilight 5:50 AM PDT 8:00 PM PDT
Moon 4:02 PM PDT (10/14) 2:44 AM PDT (10/14)
Length of Visible Light 12h 08m
Length of Day
11h 15m
Waxing Gibbous, 80% of the Moon is Illuminated
Oct 14
Waxing Gibbous
Oct 18
Full
Oct 26
Last Quarter
Nov 3
New
Nov 9
First Quarter

Hourly Weather History & Observations

Time (PDT) Temp. Windchill Dew Point Humidity Pressure Visibility Wind Dir Wind Speed Gust Speed Precip Events Conditions
12:15 AM 48.2 °F - 42.8 °F 82% 30.08 in 10.0 mi Calm Calm - N/A   Clear
12:35 AM 46.4 °F - 41.0 °F 81% 30.08 in 10.0 mi Calm Calm - N/A   Clear
12:55 AM 46.4 °F 45.2 °F 41.0 °F 81% 30.08 in 10.0 mi NNE 3.5 mph - N/A   Clear
1:15 AM 46.4 °F - 37.4 °F 71% 30.08 in 10.0 mi Calm Calm - N/A   Clear
1:35 AM 46.4 °F 45.2 °F 42.8 °F 87% 30.08 in 10.0 mi South 3.5 mph - N/A   Clear
1:55 AM 41.0 °F - 39.2 °F 93% 30.08 in 10.0 mi Calm Calm - N/A   Clear
2:15 AM 41.0 °F - 39.2 °F 93% 30.08 in 10.0 mi Calm Calm - N/A   Clear
2:35 AM 44.6 °F - 41.0 °F 87% 30.08 in 10.0 mi Calm Calm - N/A   Clear
2:55 AM 42.8 °F - 41.0 °F 93% 30.08 in 10.0 mi Calm Calm - N/A   Clear
3:15 AM 44.6 °F - 39.2 °F 81% 30.08 in 10.0 mi Calm Calm - N/A   Clear
3:35 AM 44.6 °F - 39.2 °F 81% 30.08 in 10.0 mi Calm Calm - N/A   Clear
3:55 AM 44.6 °F - 39.2 °F 81% 30.08 in 10.0 mi Calm Calm - N/A   Clear
4:15 AM 44.6 °F - 41.0 °F 87% 30.08 in 10.0 mi Calm Calm - N/A   Clear
4:35 AM 44.6 °F - 41.0 °F 87% 30.09 in 10.0 mi Calm Calm - N/A   Clear
4:55 AM 44.6 °F - 41.0 °F 87% 30.09 in 10.0 mi Calm Calm - N/A   Clear
5:15 AM 44.6 °F - 41.0 °F 87% 30.09 in 10.0 mi Calm Calm - N/A   Clear
5:35 AM 42.8 °F - 41.0 °F 93% 30.09 in 10.0 mi Calm Calm - N/A   Clear
5:55 AM 41.0 °F - 39.2 °F 93% 30.10 in 10.0 mi Calm Calm - N/A   Clear
6:15 AM 42.8 °F - 39.2 °F 87% 30.10 in 10.0 mi Calm Calm - N/A   Clear
6:35 AM 42.8 °F - 41.0 °F 93% 30.11 in 10.0 mi Calm Calm - N/A   Clear
6:55 AM 42.8 °F - 41.0 °F 93% 30.11 in 10.0 mi Calm Calm - N/A   Clear
7:15 AM 42.8 °F - 41.0 °F 93% 30.11 in 10.0 mi Calm Calm - N/A   Clear
7:35 AM 41.0 °F - 41.0 °F 100% 30.11 in 10.0 mi Calm Calm - N/A   Clear
7:55 AM 39.2 °F - 39.2 °F 100% 30.12 in 10.0 mi Calm Calm - N/A   Clear
8:15 AM 41.0 °F - 41.0 °F 100% 30.12 in 10.0 mi Calm Calm - N/A   Clear
8:35 AM 46.4 °F - 44.6 °F 93% 30.13 in 10.0 mi Calm Calm - N/A   Clear
8:55 AM 48.2 °F - 44.6 °F 87% 30.14 in 10.0 mi Calm Calm - N/A   Clear
9:15 AM 51.8 °F - 44.6 °F 76% 30.14 in 10.0 mi Calm Calm - N/A   Clear
9:35 AM 55.4 °F - 44.6 °F 67% 30.13 in 10.0 mi Calm Calm - N/A   Clear
9:55 AM 57.2 °F - 44.6 °F 63% 30.13 in 10.0 mi Calm Calm - N/A   Clear
10:15 AM 59.0 °F - 42.8 °F 55% 30.13 in 10.0 mi Calm Calm - N/A   Clear
10:35 AM 64.4 °F - 41.0 °F 42% 30.13 in 10.0 mi Calm Calm - N/A   Clear
10:55 AM 66.2 °F - 41.0 °F 40% 30.13 in 10.0 mi ESE 3.5 mph - N/A   Clear
11:15 AM 68.0 °F - 39.2 °F 35% 30.12 in 10.0 mi SSE 3.5 mph - N/A   Clear
11:35 AM 68.0 °F - 39.2 °F 35% 30.12 in 10.0 mi ESE 5.8 mph - N/A   Clear
11:55 AM 69.8 °F - 37.4 °F 31% 30.12 in 10.0 mi SE 6.9 mph - N/A   Clear
12:15 PM 71.6 °F - 37.4 °F 29% 30.11 in 10.0 mi SE 6.9 mph - N/A   Clear
12:35 PM 71.6 °F - 37.4 °F 29% 30.11 in 10.0 mi SE 5.8 mph - N/A   Clear
12:55 PM 71.6 °F - 37.4 °F 29% 30.10 in 10.0 mi SE 5.8 mph - N/A Rain Light Rain
1:15 PM 73.4 °F - 37.4 °F 27% 30.09 in 10.0 mi SE 6.9 mph - N/A Rain Light Rain
1:35 PM 73.4 °F - 35.6 °F 25% 30.08 in 10.0 mi SSE 4.6 mph - N/A   Clear
1:55 PM 75.2 °F - 37.4 °F 25% 30.07 in 10.0 mi SSE 5.8 mph - N/A   Clear
2:15 PM 75.2 °F - 37.4 °F 25% 30.06 in 10.0 mi SSE 5.8 mph - N/A   Clear
2:35 PM 75.2 °F - 35.6 °F 24% 30.05 in 10.0 mi SSE 3.5 mph - N/A   Clear
2:55 PM 77.0 °F - 35.6 °F 22% 30.04 in 10.0 mi SSE 5.8 mph - N/A   Clear
3:15 PM 77.0 °F - 35.6 °F 22% 30.04 in 10.0 mi SE 5.8 mph - N/A   Clear
3:35 PM 77.0 °F - 35.6 °F 22% 30.03 in 10.0 mi ESE 3.5 mph - N/A   Clear
3:55 PM 77.0 °F - 37.4 °F 24% 30.03 in 10.0 mi ESE 5.8 mph - N/A   Clear
4:15 PM 77.0 °F - 37.4 °F 24% 30.02 in 10.0 mi SE 5.8 mph - N/A   Clear
4:35 PM 77.0 °F - 37.4 °F 24% 30.01 in 10.0 mi ESE 5.8 mph - N/A   Clear
4:55 PM 77.0 °F - 37.4 °F 24% 30.01 in 10.0 mi North 3.5 mph - N/A   Clear
5:15 PM 77.0 °F - 35.6 °F 22% 30.02 in 10.0 mi NW 3.5 mph - N/A   Clear
5:35 PM 75.2 °F - 35.6 °F 24% 30.01 in 10.0 mi NNW 3.5 mph - N/A   Clear
5:55 PM 71.6 °F - 35.6 °F 27% 30.01 in 10.0 mi NNW 5.8 mph - N/A   Clear
6:15 PM 66.2 °F - 33.8 °F 30% 30.02 in 10.0 mi NNW 3.5 mph - N/A   Clear
6:35 PM 64.4 °F - 35.6 °F 34% 30.02 in 10.0 mi Calm Calm - N/A   Clear
6:55 PM 62.6 °F - 33.8 °F 34% 30.02 in 10.0 mi Calm Calm - N/A   Clear
7:15 PM 60.8 °F - 35.6 °F 39% 30.02 in 10.0 mi North 3.5 mph - N/A   Clear
7:35 PM 60.8 °F - 33.8 °F 36% 30.03 in 10.0 mi Calm Calm - N/A   Clear
7:55 PM 59.0 °F - 35.6 °F 42% 30.03 in 10.0 mi NE 4.6 mph - N/A   Clear
8:15 PM 55.4 °F - 35.6 °F 47% 30.03 in 10.0 mi ENE 3.5 mph - N/A   Clear
8:35 PM 55.4 °F - 37.4 °F 51% 30.03 in 10.0 mi NNE 4.6 mph - N/A   Clear
8:55 PM 55.4 °F - 35.6 °F 47% 30.04 in 10.0 mi Calm Calm - N/A   Clear
9:15 PM 53.6 °F - 35.6 °F 51% 30.04 in 10.0 mi NNE 5.8 mph - N/A   Clear
9:35 PM 53.6 °F - 37.4 °F 54% 30.04 in 10.0 mi NNE 6.9 mph - N/A   Clear
9:55 PM 51.8 °F - 37.4 °F 58% 30.05 in 10.0 mi Calm Calm - N/A   Clear
10:15 PM 53.6 °F - 37.4 °F 54% 30.05 in 10.0 mi Calm Calm - N/A   Clear
10:35 PM 50.0 °F - 37.4 °F 62% 30.05 in 10.0 mi NNW 3.5 mph - N/A   Clear
10:55 PM 50.0 °F - 35.6 °F 58% 30.05 in 10.0 mi Calm Calm - N/A   Clear
11:15 PM 51.8 °F - 35.6 °F 54% 30.05 in 10.0 mi Calm Calm - N/A   Clear
11:35 PM 51.8 °F - 37.4 °F 58% 30.04 in 10.0 mi Calm Calm - N/A   Clear
11:55 PM 50.0 °F - 37.4 °F 62% 30.04 in 10.0 mi Calm Calm - N/A   Clear